Tracking 18840 objects as of 18-November-2017
HD Live streaming from Space Station
objects crossing your sky now

FENGYUN 1C DEB

Track FENGYUN 1C DEB now!
10-day predictions


NORAD ID: 30175
Int'l Code: 1999-025UG
Perigee: 855.1 km
Apogee: 1,075.1 km
Inclination: 99.5 °
Period: 104.2 minutes
Semi major axis: 7336 km
RCS: 0.0364 m2 (small)
Launch date: May 10, 1999
Source: People's Republic of China (PRC)
Launch site: Taiyaun Space Center, China (TSC)

Note: This is SATELLITE DEBRIS
aabbcc
Your satellite tracking list
Your tracking list is empty




NASA's NSSDC Master Catalog

Two Line Element Set (TLE):
1 30175U 99025UG  17321.89210073  .00000164  00000-0  17926-3 0  9994
2 30175  99.5487 302.8909 0149932  69.0794 348.8344 13.81672105546388
Source of the keplerian elements: AFSPC